Hourly Data Report for September 25, 2017

All times are specified in Local Standard Time (LST). Add 1 hour to adjust for Daylight Saving Time where and when it is observed.

BAS CARAQUET
NEW BRUNSWICK

47°48'08.000" N
64°50'00.000" W
5.00 m
8100467
71598
WXS

Download Data

Hourly Data (September 2017)
Hourly Data Report for September 25, 2017
Temp Definition
°C
Dew Point Temp Definition
°C
Rel Hum Definition
%
Wind Dir Definition
10's deg

Wind Spd Definition
km/h
Visibility Definition
km
Stn Press Definition
kPa
Hmdx Definition


Wind Chill Definition


Weather Definition


TIME
00:00 11.1 10.9 99 29 3   101.75     LegendNANA
01:00 10.3 10.1 99 27 2   101.76     LegendNANA
02:00 9.7 9.6 99 27 2   101.81     LegendNANA
03:00 8.6 8.4 99 27 1   101.79     LegendNANA
04:00 8.8 8.7 99 23 2   101.82     LegendNANA
05:00 10.6 10.5 100 20 4   101.82     LegendNANA
06:00 9.8 9.7 100 20 2   101.91     LegendNANA
07:00 10.4 10.4 100 17 3   101.85     LegendNANA
08:00 12.2 12.1 100 15 2   101.93     LegendNANA
09:00 14.0 13.9 100 15 8   101.91     LegendNANA
10:00 15.1 14.1 94 17 8   101.91     LegendNANA
11:00 15.4 12.9 85 15 11   101.85     LegendNANA
12:00 15.3 12.2 82 16 14   101.77     LegendNANA
13:00 15.4 12.4 82 16 13   101.67     LegendNANA
14:00 16.7 13.1 80 16 14   101.59     LegendNANA
15:00 18.3 13.7 74 16 14   101.47     LegendNANA
16:00 18.7 14.3 76 16 11   101.41     LegendNANA
17:00 18.1 14.2 78 16 10   101.37     LegendNANA
18:00 17.1 14.3 84 15 11   101.30     LegendNANA
19:00 16.2 14.9 92 15 9   101.23     LegendNANA
20:00 16.3 15.4 95 17 9   101.13     LegendNANA
21:00 17.5 16.2 92 22 5   101.07     LegendNANA
22:00 16.0 15.4 96 24 5   101.02     LegendNANA
23:00 15.2 14.8 98 26 5   100.98     LegendNANA

Notes on Data Quality.

Legend

  • E = Estimated
  • M = Missing
  • NA = Not Available
  • ‡ = Partner data that is not subject to review by the National Climate Archives
Date modified: